Breckenridge, CO

2:41 AM MST on February 10, 2016 (GMT -0700)
Copper Mountain

Weather History for KCCU - July, 2013

Change the Weather History Date:

Sunday, July 28, 2013

  Actual Average (KLXV) Record (KLXV)
Temperature  
Mean Temperature 48 °F -  
Max Temperature 53 °F 68 °F 77 °F (2010)
Min Temperature 44 °F 42 °F 29 °F (1986)
Degree Days  
Heating Degree Days 16    
Moisture  
Dew Point 41 °F    
Average Humidity 78    
Maximum Humidity 87    
Minimum Humidity 58    
Precipitation  
Precipitation 0.33 in - - ()
Sea Level Pressure  
Sea Level Pressure 30.46 in    
Wind  
Wind Speed 17 mph (SW)    
Max Wind Speed 31 mph    
Max Gust Speed 36 mph    
Visibility 8 miles    
Events Rain , Thunderstorm    
Averages and records for this station are not official NWS values.
T = Trace of Precipitation, MM = Missing Value Source: NWS Daily Summary

Daily Weather History Graph

Daily Weather History Graph

Search for Another Location

Airport or City:

Trip Planner

Search our weather history database for the weather conditions in past years. The results will help you decide how hot, cold, wet, or windy it might be!

Date:

Astronomy

Jul. 28, 2013 Rise Set
Actual Time 6:00 AM MDT 8:20 PM MDT
Civil Twilight 5:30 AM MDT 8:50 PM MDT
Nautical Twilight 4:53 AM MDT 9:28 PM MDT
Astronomical Twilight 4:11 AM MDT 10:09 PM MDT
Moon 11:46 PM MDT (7/28) 12:43 PM MDT (7/28)
Length of Visible Light 15h 20m
Length of Day
14h 19m
Waning Gibbous, 60% of the Moon is Illuminated
Jul 28
Waning Gibbous
Jul 29
Last Quarter
Aug 6
New
Aug 14
First Quarter
Aug 20
Full

Hourly Weather History & Observations

Time (MDT) Temp. Windchill Dew Point Humidity Pressure Visibility Wind Dir Wind Speed Gust Speed Precip Events Conditions
12:15 AM 48.2 °F - 37.4 °F 66% 30.51 in 10.0 mi South 21.9 mph - N/A   Overcast
12:35 AM 50.0 °F - 37.4 °F 62% 30.50 in 10.0 mi South 25.3 mph - N/A   Overcast
12:55 AM 48.2 °F - 37.4 °F 66% 30.50 in 10.0 mi South 27.6 mph 31.1 mph N/A   Overcast
1:15 AM 46.4 °F 38.3 °F 37.4 °F 71% 30.49 in 10.0 mi South 23.0 mph 29.9 mph N/A   Overcast
1:35 AM 46.4 °F 37.2 °F 41.0 °F 81% 30.48 in 10.0 mi South 29.9 mph - 0.01 in Rain Light Rain
1:55 AM 46.4 °F 38.3 °F 41.0 °F 81% 30.48 in 10.0 mi SSE 23.0 mph 28.8 mph 0.01 in   Light Drizzle
2:15 AM 46.4 °F 39.2 °F 41.0 °F 81% 30.48 in 10.0 mi South 18.4 mph - N/A   Overcast
2:35 AM 46.4 °F 39.2 °F 41.0 °F 81% 30.47 in 10.0 mi South 18.4 mph 24.2 mph N/A   Overcast
2:55 AM 46.4 °F 38.5 °F 41.0 °F 81% 30.46 in 10.0 mi South 21.9 mph - N/A   Overcast
3:15 AM 44.6 °F 36.6 °F 41.0 °F 87% 30.46 in 10.0 mi South 19.6 mph - N/A Rain Light Rain
3:35 AM 44.6 °F 37.4 °F 41.0 °F 87% 30.45 in 5.0 mi South 16.1 mph - N/A Rain Rain
3:55 AM 44.6 °F 37.2 °F 41.0 °F 87% 30.45 in 10.0 mi South 17.3 mph - 0.01 in Rain Rain
4:15 AM 46.4 °F 39.2 °F 41.0 °F 81% 30.44 in 10.0 mi South 18.4 mph - N/A   Drizzle
4:35 AM 46.4 °F 38.7 °F 41.0 °F 81% 30.45 in 10.0 mi South 20.7 mph - N/A   Light Drizzle
4:55 AM 46.4 °F 38.3 °F 41.0 °F 81% 30.44 in 10.0 mi South 23.0 mph - N/A Rain Light Rain
5:15 AM 44.6 °F 36.6 °F 41.0 °F 87% 30.44 in 10.0 mi South 19.6 mph - 0.01 in Rain Light Rain
5:35 AM 44.6 °F 36.4 °F 41.0 °F 87% 30.43 in 7.0 mi South 20.7 mph - 0.01 in   Drizzle
5:55 AM 44.6 °F 37.4 °F 41.0 °F 87% 30.44 in 10.0 mi South 16.1 mph - 0.01 in Rain Rain
6:15 AM 46.4 °F 39.5 °F 39.2 °F 76% 30.45 in 10.0 mi South 17.3 mph 24.2 mph 0.03 in Rain Light Rain
6:35 AM 44.6 °F 37.4 °F 39.2 °F 81% 30.44 in 7.0 mi South 16.1 mph 20.7 mph 0.05 in Rain Light Rain
6:55 AM 44.6 °F 37.8 °F 41.0 °F 87% 30.45 in 7.0 mi South 15.0 mph - 0.08 in Rain Light Rain
7:15 AM 44.6 °F 38.8 °F 41.0 °F 87% 30.45 in 1.2 mi South 11.5 mph - 0.01 in Rain Light Rain
7:35 AM 44.6 °F 39.7 °F 41.0 °F 87% 30.44 in 10.0 mi South 9.2 mph - 0.01 in   Light Drizzle
7:55 AM 46.4 °F 39.5 °F 41.0 °F 81% 30.44 in 10.0 mi South 17.3 mph - 0.01 in   Overcast
8:15 AM 46.4 °F 40.1 °F 41.0 °F 81% 30.44 in 10.0 mi South 15.0 mph - N/A   Overcast
8:35 AM 46.4 °F 41.1 °F 41.0 °F 81% 30.44 in 10.0 mi South 11.5 mph 18.4 mph N/A   Overcast
8:55 AM 46.4 °F 45.2 °F 41.0 °F 81% 30.45 in 10.0 mi SW 3.5 mph - N/A   Overcast
9:15 AM 46.4 °F 43.5 °F 41.0 °F 81% 30.45 in 10.0 mi SW 5.8 mph - N/A   Overcast
9:35 AM 46.4 °F 44.3 °F 41.0 °F 81% 30.45 in 10.0 mi WSW 4.6 mph - N/A   Overcast
9:55 AM 46.4 °F 42.4 °F 41.0 °F 81% 30.45 in 10.0 mi SSW 8.1 mph 16.1 mph N/A   Overcast
10:15 AM 46.4 °F 43.5 °F 42.8 °F 87% 30.45 in 4.0 mi West 5.8 mph - N/A   Haze
10:35 AM 48.2 °F - 42.8 °F 82% 30.45 in 1.5 mi South 5.8 mph - N/A Rain Light Rain
10:55 AM 48.2 °F - 42.8 °F 82% 30.45 in 4.0 mi SSW 6.9 mph - N/A   Light Drizzle
11:15 AM 48.2 °F - 42.8 °F 82% 30.45 in 4.0 mi WSW 6.9 mph 18.4 mph 0.01 in   Drizzle
11:35 AM 46.4 °F 43.5 °F 42.8 °F 87% 30.46 in 1.0 mi WSW 5.8 mph - 0.02 in   Heavy Drizzle
11:55 AM 46.4 °F 41.5 °F 42.8 °F 87% 30.46 in 1.2 mi West 10.4 mph 20.7 mph 0.03 in Rain Light Rain
12:15 PM 48.2 °F - 42.8 °F 82% 30.46 in 2.5 mi WSW 8.1 mph 18.4 mph 0.01 in Rain Light Rain
12:35 PM 50.0 °F - 44.6 °F 82% 30.46 in 7.0 mi SW 5.8 mph - 0.01 in Rain Light Rain
12:55 PM 51.8 °F - 46.4 °F 82% 30.46 in 2.5 mi West 10.4 mph - 0.01 in   Haze
1:15 PM 53.6 °F - 46.4 °F 77% 30.46 in 10.0 mi West 6.9 mph - N/A   Overcast
1:35 PM 51.8 °F - 46.4 °F 82% 30.45 in 10.0 mi West 8.1 mph - N/A   Overcast
1:55 PM 50.0 °F - 44.6 °F 82% 30.45 in 0.2 mi West 31.1 mph 35.7 mph 0.02 in Rain Heavy Rain
2:15 PM 46.4 °F 37.5 °F 41.0 °F 81% 30.45 in 0.2 mi West 27.6 mph 34.5 mph 0.04 in Rain Rain
2:35 PM 46.4 °F 39.2 °F 41.0 °F 81% 30.46 in 0.2 mi West 18.4 mph - 0.05 in Rain Light Rain
2:55 PM 46.4 °F 40.1 °F 42.8 °F 87% 30.47 in 10.0 mi West 15.0 mph - 0.05 in   Overcast
3:15 PM 46.4 °F 40.1 °F 42.8 °F 87% 30.47 in 7.0 mi West 15.0 mph - N/A   Drizzle
3:35 PM 48.2 °F - 42.8 °F 82% 30.46 in 1.5 mi West 19.6 mph - N/A Rain Light Rain
3:55 PM 48.2 °F - 42.8 °F 82% 30.47 in 10.0 mi West 20.7 mph 26.5 mph N/A   Overcast
4:15 PM 50.0 °F - 41.0 °F 71% 30.47 in 10.0 mi West 16.1 mph 26.5 mph N/A   Overcast
4:35 PM 50.0 °F - 41.0 °F 71% 30.47 in 10.0 mi West 16.1 mph - N/A   Mostly Cloudy
4:55 PM 51.8 °F - 44.6 °F 76% 30.46 in 10.0 mi WSW 8.1 mph 19.6 mph N/A   Mostly Cloudy
5:15 PM 51.8 °F - 42.8 °F 71% 30.46 in 10.0 mi West 13.8 mph - N/A   Scattered Clouds
5:35 PM 51.8 °F - 41.0 °F 67% 30.44 in 10.0 mi West 8.1 mph - N/A   Clear
5:55 PM 53.6 °F - 42.8 °F 67% 30.46 in 10.0 mi West 10.4 mph 16.1 mph N/A   Clear
6:15 PM 53.6 °F - 39.2 °F 58% 30.45 in 10.0 mi West 12.7 mph - N/A   Clear
6:35 PM 53.6 °F - 41.0 °F 62% 30.45 in 10.0 mi West 11.5 mph - N/A   Clear
6:55 PM 53.6 °F - 41.0 °F 62% 30.45 in 10.0 mi West 16.1 mph 20.7 mph N/A   Scattered Clouds
7:15 PM 53.6 °F - 41.0 °F 62% 30.46 in 10.0 mi West 16.1 mph - N/A   Scattered Clouds
7:35 PM 53.6 °F - 42.8 °F 67% 30.47 in 10.0 mi West 13.8 mph - N/A Thunderstorm Clear
7:55 PM 51.8 °F - 41.0 °F 67% 30.47 in 10.0 mi West 16.1 mph - N/A Thunderstorm Clear
8:15 PM 50.0 °F - 41.0 °F 71% 30.47 in 10.0 mi West 11.5 mph - N/A Thunderstorm Thunderstorm
8:35 PM 48.2 °F - 39.2 °F 71% 30.49 in 10.0 mi SSW 4.6 mph - N/A   Clear
8:55 PM 50.0 °F - 41.0 °F 71% 30.49 in 10.0 mi West 15.0 mph - N/A   Mostly Cloudy
9:15 PM 50.0 °F - 41.0 °F 71% 30.49 in 10.0 mi West 13.8 mph - N/A Thunderstorm Mostly Cloudy
9:35 PM 48.2 °F - 41.0 °F 76% 30.49 in 10.0 mi West 11.5 mph - N/A Thunderstorm Thunderstorm
9:55 PM 48.2 °F - 42.8 °F 82% 30.49 in 10.0 mi West 18.4 mph - N/A Thunderstorm Thunderstorm
10:15 PM 50.0 °F - 42.8 °F 76% 30.49 in 10.0 mi West 17.3 mph - N/A Thunderstorm Unknown
10:35 PM 46.4 °F 37.9 °F 42.8 °F 87% 30.49 in 5.0 mi West 25.3 mph 33.4 mph N/A Rain , Thunderstorm Light Thunderstorms and Rain
10:55 PM 44.6 °F 37.8 °F 39.2 °F 81% 30.50 in 4.0 mi WSW 15.0 mph 32.2 mph 0.04 in Rain Rain
11:15 PM 44.6 °F 36.9 °F 37.4 °F 76% 30.49 in 4.0 mi SSE 18.4 mph - 0.05 in Rain Rain
11:35 PM 44.6 °F 36.1 °F 37.4 °F 76% 30.47 in 5.0 mi SSE 21.9 mph - 0.06 in Rain Light Rain
11:55 PM 46.4 °F 40.1 °F 37.4 °F 71% 30.48 in 10.0 mi South 15.0 mph - 0.06 in   Overcast